Regional Weather Roundup
Issued by NWS

Home | Current Version | Previous Version | Text Only | Print | Product List | Glossary On
Versions: 1 2 3 4 5 6 7 8 9 10 11 12 13 14 15 16 17 18 19 20 21 22 23 24 25 26 27 28 29 30 31 32 33 34 35 36 37 38 39 40 41 42 43 44 45 46 47 48 49 50
000
ASUS43 KMPX 211510
RWRMN
WEATHER ROUNDUP FOR MINNESOTA
NATIONAL WEATHER SERVICE TWIN CITIES/CHANHASSEN MN
1000 AM CDT FRI JUL 21 2017


NOTE: "FAIR" INDICATES FEW OR NO CLOUDS BELOW 12,000 FEET WITH NO
SIGNIFICANT WEATHER AND/OR OBSTRUCTIONS TO VISIBILITY. N/A MEANS
CURRENT SKY AND/OR WEATHER CONDITIONS ARE NOT AVAILABLE.

MNZ060>063-068>070-211600-
   Twin Cities Metro

CITY           SKY/WX    TMP DP  RH WIND       PRES   REMARKS
TWIN CITIES    CLOUDY    73  66  78 SE8       29.92F
ST PAUL        CLOUDY    73  69  87 E10       29.91F
CRYSTAL        CLOUDY    74  64  71 SE9G17    29.90F
BLAINE         CLOUDY    75  70  83 SE9       29.91F
LAKEVILLE      LGT RAIN  70  70 100 S5        29.93F
EDEN PRAIRIE   CLOUDY    73  66  78 E8        29.90F
SOUTH ST PAUL  CLOUDY    73  69  89 SE5       29.92F
LAKE ELMO      FAIR      72  68  88 SE6       29.94F
$$
MNZ001>005-007-008-013>017-022>024-027-028-211600-
   Northwest Minnesota

CITY           SKY/WX    TMP DP  RH WIND       PRES   REMARKS
BEMIDJI        CLOUDY    74  66  75 SE10      29.89F
HALLOCK        SUNNY     77  66  69 SE9       29.82F
ROSEAU         MOSUNNY   73  63  68 E10G17    29.89S
WARROAD        CLOUDY    70  63  78 E10       29.91F
THIEF RVR FALL PTSUNNY   76  68  76 SE10      29.85S
CROOKSTON      CLOUDY    79  70  73 S10       29.82S
FOSSTON        MOSUNNY   77  64  65 SE9       29.84F
DETROIT LAKES  CLOUDY    77  68  73 SE13      29.83F
MOORHEAD       CLOUDY    81  72  74 SW15      29.82R
PARK RAPIDS    CLOUDY    76  65  68 SE12      29.88F
MAHNOMEN       FAIR      76  67  74 SE10      29.84F
$$
MNZ006-009>011-018-025>026-211600-
   North Central Minnesota

CITY           SKY/WX    TMP DP  RH WIND       PRES   REMARKS
BAUDETTE       CLOUDY    71  60  68 E9        29.92R
FLAG ISLAND    CLOUDY    70  61  73 SE5       29.91S
INTL FALLS     CLOUDY    68  60  75 E6        29.94S
WASKISH        CLOUDY    70  57  64 E9        29.89F
BIG FORK       CLOUDY    70  57  64 E5        29.93F
LONGVILLE      CLOUDY    72  66  83 CALM      29.90F
GRAND RAPIDS   CLOUDY    69  64  84 E5        29.94F
CRANE LAKE     CLOUDY    66  59  77 CALM      29.98R
ORR            CLOUDY    66  57  72 CALM      29.94S
COOK           CLOUDY    66  61  82 CALM      29.96F
WALKER         FAIR      74  67  78 E6        29.89F
$$
MNZ012-019>021-037-211600-
   Northeast Minnesota

CITY           SKY/WX    TMP DP  RH WIND       PRES   REMARKS
DULUTH         CLOUDY    72  60  66 E12       29.96F
ELY            CLOUDY    64  55  72 CALM      29.97F
HIBBING        CLOUDY    69  61  75 E5        29.95F
EVELETH        CLOUDY    70  57  63 CALM      29.97F
DULUTH HARBOR  MOSUNNY   68  63  83 NE6       29.95F
TWO HARBORS    MOSUNNY   75  61  60 E6        29.94F
GRAND MARAIS     N/A     61  53  75 SW6       29.96R
G MARAIS ARPRT CLOUDY    64  52  63 CALM      30.01R
$$
MNZ029>031-032-039>041-046>048-054>057-064-211600-
   West Central Minnesota

CITY           SKY/WX    TMP DP  RH WIND       PRES   REMARKS
FERGUS FALLS   SUNNY     79  72  78 S10       29.81F
WHEATON        MOSUNNY   75  70  83 SE12      29.82R
MORRIS         CLOUDY    75  70  83 SE7       29.80F
ALEXANDRIA     PTSUNNY   75  70  84 SE10      29.86F
ELBOW LAKE     FAIR      75  71  87 E10       29.82F
WADENA         CLOUDY    75  63  64 E9        29.85F
GLENWOOD       PTSUNNY   73  70  88 SE14      29.86F
APPLETON       CLOUDY    75  68  78 SE10      29.78F
BENSON         CLOUDY    73  70  88 SE12G17   29.83F
ORTONVILLE     CLOUDY    72  70  94 SE6       29.77F
MADISON        CLOUDY    75  75 100 SE7       29.78F
WILLMAR        FAIR      72  70  94 E8        29.84F
$$
MNZ033>034-036-042>043-049>051-058-059-211600-
   Central Minnesota

CITY           SKY/WX    TMP DP  RH WIND       PRES   REMARKS
ST CLOUD       CLOUDY    72  68  87 SE13      29.89F
SAUK CENTRE    FAIR      72  68  88 SE15      29.85F
PAYNESVILLE    PTSUNNY   73  67  84 SE12      29.88F
AITKIN         CLOUDY    75  66  73 S8        29.90F
PINE RIVER     CLOUDY    75  66  73 SE8       29.93F
BRAINERD       CLOUDY    75  65  70 VRB3      29.89F
STAPLES        CLOUDY    73  61  64 SE6       29.87F
LONG PRAIRIE   FAIR      73  68  83 E9        29.86F
LITTLE FALLS   CLOUDY    75  63  64 SE10G17   29.87F
LITCHFIELD     CLOUDY    73  70  88 E7        29.88F
BUFFALO        CLOUDY    72  66  82 E7        29.91F
MAPLE LAKE     CLOUDY    73  69  86 SE6       29.90F
HUTCHINSON     MOSUNNY   70  69  96 E9        29.89F
$$
MNZ037-044-045-052-053-211600-
   East Central Minnesota

CITY           SKY/WX    TMP DP  RH WIND       PRES   REMARKS
PRINCETON      CLOUDY    75  68  78 SE9       29.91S
MORA           CLOUDY    73  66  78 S8        29.92F
CAMBRIDGE      CLOUDY    75  70  83 SE10      29.90F
RUSH CITY      CLOUDY    73  68  85 SE5       29.91F
MOOSE LAKE     CLOUDY    75  66  73 CALM      29.91F
HINCKLEY       FAIR      75  70  83 SE5       29.92F
CLOQUET        MOSUNNY   72  63  73 E7        29.95F
MCGREGOR       CLOUDY    77  68  73 SE7       29.92F
$$
MNZ071>073-080-081-089-090-097-098-211600-
   Southwest Minnesota

CITY           SKY/WX    TMP DP  RH WIND       PRES   REMARKS
MONTEVIDEO     LGT RAIN  72  72 100 NE6       29.79F
GRANITE FALLS  LGT RAIN  75  71  86 SE8       29.81F
CANBY          CLOUDY    75  70  83 CALM      29.79S
MARSHALL       LGT RAIN  73  70  90 S15       29.79F
REDWOOD FALLS  LGT RAIN  74  70  87 S14       29.82F
OLIVIA         LGT RAIN  72  70  94 SE8       29.83F
PIPESTONE      CLOUDY    73  70  88 SE12      29.83F
WINDOM         LGT RAIN  73  70  88 SE10      29.89F
WORTHINGTON    RAIN      71  70  96 E12G17    29.88F FOG
JACKSON        RAIN      72  72 100 CALM      29.92F
SLAYTON        LGT RAIN  71  65  83 E8        29.89F
$$
MNZ065>067-074>077-082>085-091>093-211600-
   South Central Minnesota

CITY           SKY/WX    TMP DP  RH WIND       PRES   REMARKS
MANKATO        LGT RAIN  71  70  96 S10       29.92F
NEW ULM        LGT RAIN  72  70  94 S8        29.88F
ST JAMES       LGT RAIN  72  72 100 SE7       29.89F
FAIRMONT       LGT RAIN  72  71  97 E9        29.92F
GLENCOE        CLOUDY    71  71  98 SE8       29.88F
FARIBAULT      LGT RAIN  70  70 100 S6        29.93F
OWATONNA       CLOUDY    70  70 100 S13       29.95S
WASECA         LGT RAIN  70  68  94 SE9       29.94F
ALBERT LEA     TSTM      72  70  94 N6        29.99R
$$
MNZ078>079-086>088-094>096-211600-
   Southeast Minnesota

CITY           SKY/WX    TMP DP  RH WIND       PRES   REMARKS
ROCHESTER      LGT RAIN  69  69 100 CALM      29.99R FOG
RED WING       LGT RAIN  73  66  78 SE8       29.95R
STANTON        LGT RAIN  70  67  88 S10       29.93S
DODGE CENTER   RAIN      70  66  88 S7        29.98R
WINONA         LGT RAIN  70  68  94 SE5       29.99S
AUSTIN         TSTM      68  66  94 CALM      29.94S
PRESTON        CLOUDY    69  67  94 S8        30.00F
$$
ABBREVIATIONS USED IN REMARKS
   TC - TEMPERATURES IN CELSIUS
  WCI - WIND CHILL INDEX
   HX - HEAT INDEX
  VSB - VISIBILITY
$$




USA.gov is the U.S. government's official web portal to all federal, state and local government web resources and services.